User: anonymous   Login
Location: Axtheid
(49.6213°N, 11.8205°E)
Time: 14:01:07
(UTC+00:00)
Language:

Cosmos-2242 - Orbit

View from above orbital plane
View from above orbital plane
View from above satellite
View from above satellite

Ground track
Ground track

The orbit data is extracted from the following two-line orbital elements,

1 22626U 93024A   21108.17050651  .00000235  00000-0  22694-4 0  9990
2 22626  82.5220 160.5706 0019874 145.2784 214.9736 14.88109096514473
Epoch (UTC): 18 April 2021 04:05:31
Eccentricity: 0.0019874
inclination: 82.5220°
perigee height: 590 km
apogee height: 618 km
right ascension of ascending node: 160.5706°
argument of perigee: 145.2784°
revolutions per day: 14.88109096
mean anomaly at epoch: 214.9736°
orbit number at epoch: 51447

The dashed part of the orbit path shows where the satellite is in the earth's shadow,  

DLR